| time (UTC) | temp C | wind direction | speed KPH | gust KPH | rain 1hr cm | rain 24hr cm | rain mn cm | humidity % | barometer mb |
| 20260903184040 | 28 | 71 | 8.0 | 20.9 | 0.00 | 0.00 | 0.00 | 100 | 1015.7 |
| 20260903183538 | 28 | 151 | 1.6 | 14.5 | 0.00 | 0.00 | 0.00 | 100 | 1015.8 |
| 20260903183038 | 28 | 134 | 4.8 | 12.9 | 0.00 | 0.00 | 0.00 | 100 | 1016.0 |
| 20260903182537 | 28 | 121 | 1.6 | 11.3 | 0.00 | 0.00 | 0.00 | 100 | 1016.0 |
| 20260903182037 | 28 | 101 | 3.2 | 12.9 | 0.00 | 0.00 | 0.00 | 100 | 1016.3 |
| 20260903181537 | 29 | 78 | 1.6 | 12.9 | 0.00 | 0.00 | 0.00 | 100 | 1016.3 |
| 20260903181036 | 28 | 117 | 3.2 | 19.3 | 0.00 | 0.00 | 0.00 | 100 | 1016.3 |
| 20260903180537 | 29 | 132 | 1.6 | 11.3 | 0.00 | 0.00 | 0.00 | 100 | 1016.3 |
| 20260903180038 | 28 | 136 | 1.6 | 14.5 | 0.00 | 0.00 | 0.00 | 100 | 1016.3 |
| 20260903175536 | 28 | 64 | 4.8 | 14.5 | 0.00 | 0.00 | 0.00 | 100 | 1016.3 |
| 20260903175036 | 28 | 119 | 4.8 | 16.1 | 0.00 | 0.00 | 0.00 | 100 | 1016.2 |
| 20260903174536 | 29 | 134 | 8.0 | 16.1 | 0.00 | 0.00 | 0.00 | 100 | 1016.5 |
| 20260903174036 | 29 | 137 | 3.2 | 12.9 | 0.00 | 0.00 | 0.00 | 100 | 1016.3 |
| 20260903173535 | 30 | 126 | 4.8 | 12.9 | 0.00 | 0.00 | 0.00 | 100 | 1016.2 |
| 20260903173034 | 30 | 116 | 3.2 | 12.9 | 0.00 | 0.00 | 0.00 | 100 | 1016.3 |
| 20260903172534 | 30 | 109 | 4.8 | 11.3 | 0.00 | 0.00 | 0.00 | 100 | 1016.4 |
| 20260903172034 | 29 | 127 | 4.8 | 14.5 | 0.00 | 0.00 | 0.00 | 100 | 1016.5 |
| 20260903171532 | 29 | 146 | 1.6 | 16.1 | 0.00 | 0.00 | 0.00 | 100 | 1016.6 |
| 20260903171033 | 28 | 118 | 4.8 | 17.7 | 0.00 | 0.00 | 0.00 | 100 | 1016.4 |
| 20260903170535 | 28 | 146 | 4.8 | 17.7 | 0.00 | 0.00 | 0.00 | 100 | 1016.5 |
| 20260903170036 | 28 | 105 | 4.8 | 16.1 | 0.00 | 0.00 | 0.00 | 100 | 1016.6 |
| 20260903165533 | 28 | 123 | 3.2 | 16.1 | 0.00 | 0.00 | 0.00 | 100 | 1016.6 |
| 20260903165032 | 28 | 125 | 1.6 | 12.9 | 0.00 | 0.00 | 0.00 | 100 | 1016.8 |
| 20260903164532 | 28 | 120 | 4.8 | 14.5 | 0.00 | 0.00 | 0.00 | 100 | 1016.8 |
| 20260903164032 | 28 | 105 | 4.8 | 14.5 | 0.00 | 0.00 | 0.00 | 100 | 1016.9 |
| 20260903163534 | 28 | 107 | 1.6 | 11.3 | 0.00 | 0.00 | 0.00 | 100 | 1017.0 |
| 20260903163031 | 28 | 129 | 0.0 | 12.9 | 0.00 | 0.00 | 0.00 | 100 | 1017.0 |
| 20260903162532 | 28 | 146 | 4.8 | 12.9 | 0.00 | 0.00 | 0.00 | 100 | 1017.0 |
| 20260903162032 | 29 | 119 | 4.8 | 14.5 | 0.00 | 0.00 | 0.00 | 100 | 1017.1 |
| 20260903161534 | 29 | 113 | 6.4 | 12.9 | 0.00 | 0.00 | 0.00 | 100 | 1017.1 |
| 20260903161031 | 29 | 111 | 0.0 | 8.0 | 0.00 | 0.00 | 0.00 | 100 | 1017.0 |
| 20260903160532 | 30 | 111 | 3.2 | 8.0 | 0.00 | 0.00 | 0.00 | 100 | 1017.0 |
| 20260903160053 | 29 | 138 | 1.6 | 6.4 | 0.00 | 0.00 | 0.00 | 100 | 1016.9 |
| 20260903155530 | 29 | 120 | 1.6 | 9.7 | 0.00 | 0.00 | 0.00 | 100 | 1016.9 |
| 20260903155031 | 29 | 121 | 1.6 | 9.7 | 0.00 | 0.00 | 0.00 | 100 | 1017.0 |
| 20260903154531 | 30 | 109 | 0.0 | 8.0 | 0.00 | 0.00 | 0.00 | 100 | 1017.0 |
| 20260903154030 | 30 | 128 | 3.2 | 11.3 | 0.00 | 0.00 | 0.00 | 100 | 1017.0 |
| 20260903153529 | 30 | 102 | 3.2 | 12.9 | 0.00 | 0.00 | 0.00 | 100 | 1017.1 |
| 20260903153030 | 29 | 140 | 3.2 | 12.9 | 0.00 | 0.00 | 0.00 | 100 | 1017.2 |
| 20260903152530 | 30 | 107 | 3.2 | 9.7 | 0.00 | 0.00 | 0.00 | 100 | 1017.3 |
| 20260903152030 | 30 | 82 | 1.6 | 11.3 | 0.00 | 0.00 | 0.00 | 100 | 1017.3 |
| 20260903151534 | 30 | 144 | 3.2 | 6.4 | 0.00 | 0.00 | 0.00 | 100 | 1017.3 |
| 20260903151028 | 30 | 212 | 1.6 | 12.9 | 0.00 | 0.00 | 0.00 | 100 | 1017.3 |
| 20260903150527 | 30 | 232 | 3.2 | 12.9 | 0.00 | 0.00 | 0.00 | 100 | 1017.2 |
| 20260903150030 | 30 | 224 | 3.2 | 9.7 | 0.00 | 0.00 | 0.00 | 100 | 1017.2 |
| 20260903145526 | 30 | 197 | 1.6 | 12.9 | 0.00 | 0.00 | 0.00 | 100 | 1017.2 |
| 20260903145026 | 30 | 219 | 4.8 | 12.9 | 0.00 | 0.00 | 0.00 | 100 | 1017.1 |
| 20260903144526 | 30 | 188 | 3.2 | 8.0 | 0.00 | 0.00 | 0.00 | 100 | 1017.1 |
| 20260903144024 | 30 | 197 | 4.8 | 8.0 | 0.00 | 0.00 | 0.00 | 100 | 1017.2 |
| 20260903143523 | 30 | 170 | 3.2 | 9.7 | 0.00 | 0.00 | 0.00 | 100 | 1017.1 |
| 20260903143026 | 30 | 184 | 1.6 | 9.7 | 0.00 | 0.00 | 0.00 | 100 | 1017.0 |
| 20260903142521 | 30 | 178 | 1.6 | 14.5 | 0.00 | 0.00 | 0.00 | 100 | 1017.1 |
| 20260903142019 | 30 | 162 | 4.8 | 14.5 | 0.00 | 0.00 | 0.00 | 100 | 1016.9 |
| 20260903141517 | 29 | 233 | 3.2 | 8.0 | 0.00 | 0.00 | 0.00 | 100 | 1016.9 |
| 20260903141019 | 29 | 224 | 3.2 | 8.0 | 0.00 | 0.00 | 0.00 | 100 | 1016.9 |
| 20260903140514 | 29 | 210 | 3.2 | 8.0 | 0.00 | 0.00 | 0.00 | 100 | 1016.8 |
| 20260903140013 | 29 | 181 | 3.2 | 9.7 | 0.00 | 0.00 | 0.00 | 100 | 1016.8 |
| 20260903135511 | 28 | 175 | 4.8 | 9.7 | 0.00 | 0.00 | 0.00 | 100 | 1016.7 |
| 20260903135012 | 28 | 220 | 3.2 | 9.7 | 0.00 | 0.00 | 0.00 | 100 | 1016.8 |
| 20260903134508 | 28 | 203 | 1.6 | 11.3 | 0.00 | 0.00 | 0.00 | 100 | 1016.7 |
| 20260903134011 | 28 | 221 | 3.2 | 8.0 | 0.00 | 0.00 | 0.00 | 100 | 1016.6 |
| 20260903133508 | 28 | 171 | 4.8 | 8.0 | 0.00 | 0.00 | 0.00 | 100 | 1016.7 |
| 20260903133008 | 28 | 167 | 1.6 | 8.0 | 0.00 | 0.00 | 0.00 | 100 | 1016.7 |
| 20260903132504 | 27 | 161 | 0.0 | 8.0 | 0.00 | 0.00 | 0.00 | 100 | 1016.7 |
| 20260903132004 | 27 | 144 | 1.6 | 8.0 | 0.00 | 0.00 | 0.00 | 100 | 1016.6 |
| 20260903131504 | 27 | 193 | 0.0 | 0.0 | 0.00 | 0.00 | 0.00 | 100 | 1016.7 |
| 20260903131005 | 27 | 193 | 0.0 | 0.0 | 0.00 | 0.00 | 0.00 | 100 | 1016.7 |
| 20260903130504 | 27 | 191 | 0.0 | 0.0 | 0.00 | 0.00 | 0.00 | 100 | 1016.5 |
| 20260903130005 | 26 | 192 | 0.0 | 0.0 | 0.00 | 0.00 | 0.00 | 100 | 1016.6 |
| 20260903125506 | 26 | 204 | 0.0 | 0.0 | 0.00 | 0.00 | 0.00 | 100 | 1016.7 |
| 20260903125004 | 26 | 203 | 0.0 | 0.0 | 0.00 | 0.00 | 0.00 | 100 | 1016.6 |
| 20260903124502 | 26 | 203 | 0.0 | 0.0 | 0.00 | 0.00 | 0.00 | 100 | 1016.6 |
| 20260903124002 | 26 | 202 | 0.0 | 0.0 | 0.00 | 0.00 | 0.00 | 100 | 1016.6 |
| 20260903123504 | 26 | 202 | 0.0 | 0.0 | 0.00 | 0.00 | 0.00 | 100 | 1016.7 |
| 20260903123005 | 26 | 202 | 0.0 | 0.0 | 0.00 | 0.00 | 0.00 | 100 | 1016.7 |
| 20260903122502 | 26 | 202 | 0.0 | 0.0 | 0.00 | 0.00 | 0.00 | 100 | 1016.7 |
| 20260903122003 | 26 | 202 | 0.0 | 0.0 | 0.00 | 0.00 | 0.00 | 100 | 1016.7 |
| 20260903121501 | 26 | 201 | 0.0 | 0.0 | 0.00 | 0.00 | 0.00 | 100 | 1016.7 |
| 20260903121002 | 25 | 201 | 0.0 | 0.0 | 0.00 | 0.00 | 0.00 | 100 | 1016.7 |
| 20260903120502 | 25 | 201 | 0.0 | 0.0 | 0.00 | 0.00 | 0.00 | 100 | 1016.5 |
| 20260903120002 | 25 | 200 | 0.0 | 0.0 | 0.00 | 0.00 | 0.00 | 100 | 1016.6 |
| 20260903115504 | 25 | 200 | 0.0 | 0.0 | 0.00 | 0.00 | 0.00 | 100 | 1016.4 |
| 20260903115001 | 25 | 199 | 0.0 | 0.0 | 0.00 | 0.00 | 0.00 | 100 | 1016.4 |
| 20260903114502 | 25 | 199 | 0.0 | 0.0 | 0.00 | 0.00 | 0.00 | 100 | 1016.3 |
| 20260903114105 | 25 | 199 | 0.0 | 0.0 | 0.00 | 0.00 | 0.00 | 100 | 1016.2 |
| 20260903113603 | 25 | 199 | 0.0 | 0.0 | 0.00 | 0.00 | 0.00 | 100 | 1016.1 |
| 20260903113100 | 25 | 199 | 0.0 | 0.0 | 0.00 | 0.00 | 0.00 | 100 | 1016.0 |
| 20260903112602 | 25 | 199 | 0.0 | 0.0 | 0.00 | 0.00 | 0.00 | 100 | 1015.9 |
| 20260903112100 | 25 | 199 | 0.0 | 0.0 | 0.00 | 0.00 | 0.00 | 100 | 1015.8 |
| 20260903111100 | 25 | 199 | 0.0 | 0.0 | 0.00 | 0.00 | 0.00 | 100 | 1015.7 |
| 20260903110559 | 25 | 199 | 0.0 | 0.0 | 0.00 | 0.00 | 0.00 | 100 | 1015.6 |
| 20260903110059 | 25 | 199 | 0.0 | 0.0 | 0.00 | 0.00 | 0.00 | 100 | 1015.6 |
| 20260903105558 | 25 | 199 | 0.0 | 0.0 | 0.00 | 0.00 | 0.00 | 100 | 1015.6 |
| 20260903105057 | 25 | 199 | 0.0 | 0.0 | 0.00 | 0.00 | 0.00 | 100 | 1015.4 |
| 20260903104558 | 25 | 199 | 0.0 | 0.0 | 0.00 | 0.00 | 0.00 | 100 | 1015.4 |
| 20260903104056 | 25 | 199 | 0.0 | 0.0 | 0.00 | 0.00 | 0.00 | 100 | 1015.3 |
| 20260903103556 | 25 | 199 | 0.0 | 0.0 | 0.00 | 0.00 | 0.00 | 100 | 1015.3 |
| 20260903103056 | 25 | 199 | 0.0 | 0.0 | 0.00 | 0.00 | 0.00 | 100 | 1015.3 |
| 20260903102557 | 25 | 199 | 0.0 | 0.0 | 0.00 | 0.00 | 0.00 | 100 | 1015.2 |
| 20260903102059 | 25 | 199 | 0.0 | 0.0 | 0.00 | 0.00 | 0.00 | 100 | 1015.3 |
| 20260903101556 | 25 | 199 | 0.0 | 0.0 | 0.00 | 0.00 | 0.00 | 100 | 1015.4 |
| 20260903101056 | 25 | 199 | 0.0 | 0.0 | 0.00 | 0.00 | 0.00 | 100 | 1015.3 |
| 20260903100555 | 25 | 199 | 0.0 | 0.0 | 0.00 | 0.00 | 0.00 | 100 | 1015.2 |
| 20260903100059 | 25 | 199 | 0.0 | 0.0 | 0.00 | 0.00 | 0.00 | 100 | 1015.1 |
| 20260903095555 | 25 | 199 | 0.0 | 0.0 | 0.00 | 0.00 | 0.00 | 100 | 1015.2 |
| 20260903095055 | 25 | 199 | 0.0 | 0.0 | 0.00 | 0.00 | 0.00 | 100 | 1015.1 |
| 20260903094601 | 25 | 199 | 0.0 | 0.0 | 0.00 | 0.00 | 0.00 | 100 | 1015.1 |
| 20260903094055 | 25 | 199 | 0.0 | 0.0 | 0.00 | 0.00 | 0.00 | 100 | 1015.0 |
| 20260903093555 | 25 | 199 | 0.0 | 0.0 | 0.00 | 0.00 | 0.00 | 100 | 1015.0 |
| 20260903093117 | 25 | 199 | 0.0 | 0.0 | 0.00 | 0.00 | 0.00 | 100 | 1014.9 |
| 20260903092553 | 25 | 199 | 0.0 | 0.0 | 0.00 | 0.00 | 0.00 | 100 | 1014.8 |
| 20260903092053 | 25 | 199 | 0.0 | 0.0 | 0.00 | 0.00 | 0.00 | 100 | 1014.8 |
| 20260903091553 | 25 | 199 | 0.0 | 0.0 | 0.00 | 0.00 | 0.00 | 100 | 1015.0 |
| 20260903091054 | 25 | 199 | 0.0 | 0.0 | 0.00 | 0.00 | 0.00 | 100 | 1015.0 |
| 20260903090552 | 25 | 199 | 0.0 | 0.0 | 0.00 | 0.00 | 0.00 | 100 | 1014.9 |
| 20260903090053 | 25 | 199 | 0.0 | 0.0 | 0.00 | 0.00 | 0.00 | 100 | 1014.9 |
| 20260903085552 | 25 | 199 | 0.0 | 0.0 | 0.00 | 0.00 | 0.00 | 100 | 1014.9 |
| 20260903085050 | 25 | 198 | 0.0 | 0.0 | 0.00 | 0.00 | 0.00 | 100 | 1014.9 |
| 20260903084550 | 25 | 198 | 0.0 | 0.0 | 0.00 | 0.00 | 0.00 | 100 | 1014.8 |
| 20260903084050 | 26 | 198 | 0.0 | 1.6 | 0.00 | 0.00 | 0.00 | 100 | 1014.9 |
| 20260903083549 | 26 | 198 | 0.0 | 1.6 | 0.00 | 0.00 | 0.00 | 100 | 1014.9 |
| 20260903083048 | 26 | 198 | 0.0 | 3.2 | 0.00 | 0.00 | 0.00 | 100 | 1014.9 |
| 20260903082552 | 26 | 198 | 0.0 | 4.8 | 0.00 | 0.00 | 0.00 | 100 | 1014.7 |
| 20260903082048 | 26 | 199 | 1.6 | 4.8 | 0.00 | 0.00 | 0.00 | 100 | 1014.7 |
| 20260903081549 | 26 | 189 | 0.0 | 0.0 | 0.00 | 0.00 | 0.00 | 100 | 1014.7 |
| 20260903081049 | 26 | 178 | 0.0 | 0.0 | 0.00 | 0.00 | 0.00 | 100 | 1014.7 |
| 20260903080548 | 26 | 178 | 0.0 | 4.8 | 0.00 | 0.00 | 0.00 | 100 | 1014.7 |
| 20260903080057 | 26 | 178 | 0.0 | 4.8 | 0.00 | 0.00 | 0.00 | 100 | 1014.7 |
| 20260903075546 | 26 | 184 | 0.0 | 4.8 | 0.00 | 0.00 | 0.00 | 100 | 1014.7 |
| 20260903075048 | 26 | 175 | 0.0 | 1.6 | 0.00 | 0.00 | 0.00 | 100 | 1014.8 |
| 20260903074601 | 26 | 174 | 0.0 | 0.0 | 0.00 | 0.00 | 0.00 | 100 | 1014.7 |
| 20260903074045 | 26 | 174 | 0.0 | 0.0 | 0.00 | 0.00 | 0.00 | 100 | 1014.7 |
| 20260903073547 | 26 | 173 | 0.0 | 3.2 | 0.00 | 0.00 | 0.00 | 100 | 1014.8 |
| 20260903073054 | 26 | 172 | 0.0 | 6.4 | 0.00 | 0.00 | 0.00 | 100 | 1014.7 |
| 20260903072544 | 26 | 176 | 1.6 | 6.4 | 0.00 | 0.00 | 0.00 | 100 | 1014.8 |
| 20260903072044 | 26 | 177 | 1.6 | 6.4 | 0.00 | 0.00 | 0.00 | 100 | 1014.8 |
| 20260903071544 | 26 | 180 | 3.2 | 6.4 | 0.00 | 0.00 | 0.00 | 100 | 1014.9 |
| 20260903071042 | 26 | 180 | 1.6 | 6.4 | 0.00 | 0.00 | 0.00 | 100 | 1014.9 |
| 20260903070546 | 26 | 189 | 1.6 | 6.4 | 0.00 | 0.00 | 0.00 | 100 | 1014.8 |
| 20260903070042 | 27 | 196 | 1.6 | 6.4 | 0.00 | 0.00 | 0.00 | 100 | 1014.9 |
| 20260903065541 | 27 | 166 | 3.2 | 9.7 | 0.00 | 0.00 | 0.00 | 100 | 1015.0 |
| 20260903065042 | 27 | 157 | 1.6 | 9.7 | 0.00 | 0.00 | 0.00 | 100 | 1015.0 |
| 20260903064543 | 27 | 148 | 3.2 | 9.7 | 0.00 | 0.00 | 0.00 | 100 | 1015.0 |
| 20260903064041 | 27 | 138 | 1.6 | 11.3 | 0.00 | 0.00 | 0.00 | 100 | 1014.9 |
| 20260903063540 | 27 | 146 | 1.6 | 12.9 | 0.00 | 0.00 | 0.00 | 100 | 1014.8 |
| 20260903063040 | 27 | 108 | 3.2 | 11.3 | 0.00 | 0.00 | 0.00 | 100 | 1014.9 |
| 20260903062537 | 27 | 145 | 1.6 | 6.4 | 0.00 | 0.00 | 0.00 | 100 | 1014.9 |
| 20260903062038 | 27 | 90 | 1.6 | 11.3 | 0.00 | 0.00 | 0.00 | 100 | 1015.1 |
| 20260903061543 | 27 | 93 | 0.0 | 4.8 | 0.00 | 0.00 | 0.00 | 100 | 1015.2 |
| 20260903061036 | 27 | 92 | 0.0 | 4.8 | 0.00 | 0.00 | 0.00 | 100 | 1015.1 |
| 20260903060540 | 27 | 121 | 0.0 | 4.8 | 0.00 | 0.00 | 0.00 | 100 | 1015.2 |
| 20260903060036 | 27 | 125 | 1.6 | 4.8 | 0.00 | 0.00 | 0.00 | 100 | 1015.0 |
| 20260903055536 | 27 | 126 | 1.6 | 4.8 | 0.00 | 0.00 | 0.00 | 100 | 1015.1 |
| 20260903055035 | 27 | 126 | 0.0 | 4.8 | 0.00 | 0.00 | 0.00 | 100 | 1015.4 |
| 20260903054533 | 27 | 139 | 0.0 | 0.0 | 0.00 | 0.00 | 0.00 | 100 | 1015.5 |
| 20260903054035 | 27 | 142 | 0.0 | 4.8 | 0.00 | 0.00 | 0.00 | 100 | 1015.7 |
| 20260903053532 | 27 | 142 | 1.6 | 8.0 | 0.00 | 0.00 | 0.00 | 100 | 1015.7 |
| 20260903053033 | 27 | 143 | 1.6 | 8.0 | 0.00 | 0.00 | 0.00 | 100 | 1015.7 |
| 20260903052534 | 27 | 137 | 3.2 | 8.0 | 0.00 | 0.00 | 0.00 | 100 | 1015.7 |
| 20260903052031 | 27 | 142 | 1.6 | 4.8 | 0.00 | 0.00 | 0.00 | 100 | 1015.8 |
| 20260903051530 | 27 | 143 | 0.0 | 0.0 | 0.00 | 0.00 | 0.00 | 100 | 1016.0 |
| 20260903051030 | 27 | 143 | 0.0 | 0.0 | 0.00 | 0.00 | 0.00 | 100 | 1016.1 |
| 20260903050529 | 27 | 143 | 0.0 | 0.0 | 0.00 | 0.00 | 0.00 | 100 | 1016.1 |
| 20260903050032 | 27 | 143 | 0.0 | 0.0 | 0.00 | 0.00 | 0.00 | 100 | 1016.0 |
| 20260903045529 | 27 | 143 | 0.0 | 3.2 | 0.00 | 0.00 | 0.00 | 100 | 1016.1 |
| 20260903045028 | 27 | 143 | 0.0 | 0.0 | 0.00 | 0.00 | 0.00 | 100 | 1016.1 |
| 20260903044527 | 27 | 143 | 0.0 | 0.0 | 0.00 | 0.00 | 0.00 | 100 | 1016.1 |
| 20260903044027 | 27 | 143 | 0.0 | 3.2 | 0.00 | 0.00 | 0.00 | 100 | 1016.2 |
| 20260903043533 | 27 | 143 | 0.0 | 4.8 | 0.00 | 0.00 | 0.00 | 100 | 1016.4 |
| 20260903043026 | 27 | 143 | 1.6 | 4.8 | 0.00 | 0.00 | 0.00 | 100 | 1016.5 |
| 20260903042525 | 27 | 143 | 0.0 | 4.8 | 0.00 | 0.00 | 0.00 | 100 | 1016.6 |
| 20260903042025 | 27 | 143 | 0.0 | 1.6 | 0.00 | 0.00 | 0.00 | 100 | 1016.7 |
| 20260903041531 | 27 | 143 | 0.0 | 4.8 | 0.00 | 0.00 | 0.00 | 100 | 1016.7 |
| 20260903041025 | 27 | 143 | 1.6 | 4.8 | 0.00 | 0.00 | 0.00 | 100 | 1016.7 |
| 20260903040524 | 27 | 142 | 0.0 | 6.4 | 0.00 | 0.00 | 0.00 | 100 | 1016.6 |
| 20260903040025 | 27 | 142 | 1.6 | 8.0 | 0.00 | 0.00 | 0.00 | 100 | 1016.7 |
| 20260903035523 | 27 | 142 | 0.0 | 8.0 | 0.00 | 0.00 | 0.00 | 100 | 1016.8 |
| 20260903035022 | 27 | 167 | 0.0 | 6.4 | 0.00 | 0.00 | 0.00 | 100 | 1016.9 |
| 20260903034526 | 27 | 169 | 3.2 | 6.4 | 0.00 | 0.00 | 0.00 | 100 | 1016.9 |
| 20260903034021 | 27 | 147 | 1.6 | 8.0 | 0.00 | 0.00 | 0.00 | 100 | 1017.1 |
| 20260903033521 | 27 | 146 | 3.2 | 8.0 | 0.00 | 0.00 | 0.00 | 100 | 1016.9 |
| 20260903033036 | 27 | 144 | 3.2 | 8.0 | 0.00 | 0.00 | 0.00 | 100 | 1017.0 |
| 20260903032524 | 27 | 103 | 1.6 | 6.4 | 0.00 | 0.00 | 0.00 | 100 | 1017.0 |
| 20260903032022 | 27 | 131 | 0.0 | 3.2 | 0.00 | 0.00 | 0.00 | 100 | 1016.9 |
| 20260903031521 | 27 | 130 | 0.0 | 4.8 | 0.00 | 0.00 | 0.00 | 100 | 1017.0 |
| 20260903031023 | 27 | 130 | 1.6 | 4.8 | 0.00 | 0.00 | 0.00 | 100 | 1017.0 |
| 20260903030521 | 27 | 116 | 0.0 | 6.4 | 0.00 | 0.00 | 0.00 | 100 | 1016.8 |
| 20260903030021 | 27 | 116 | 0.0 | 6.4 | 0.00 | 0.00 | 0.00 | 100 | 1016.9 |
| 20260903025523 | 27 | 117 | 1.6 | 6.4 | 0.00 | 0.00 | 0.00 | 100 | 1016.8 |
| 20260903025022 | 27 | 117 | 0.0 | 4.8 | 0.00 | 0.00 | 0.00 | 100 | 1016.8 |
| 20260903024520 | 27 | 127 | 1.6 | 6.4 | 0.00 | 0.00 | 0.00 | 100 | 1016.8 |
| 20260903024019 | 27 | 115 | 1.6 | 6.4 | 0.00 | 0.00 | 0.00 | 100 | 1016.6 |
| 20260903023523 | 27 | 119 | 1.6 | 9.7 | 0.00 | 0.00 | 0.00 | 100 | 1016.7 |
| 20260903023020 | 27 | 115 | 1.6 | 9.7 | 0.00 | 0.00 | 0.00 | 100 | 1016.7 |
| 20260903022520 | 27 | 111 | 1.6 | 6.4 | 0.00 | 0.00 | 0.00 | 100 | 1016.7 |
| 20260903022018 | 27 | 118 | 3.2 | 6.4 | 0.00 | 0.00 | 0.00 | 100 | 1016.6 |
| 20260903021519 | 27 | 116 | 1.6 | 6.4 | 0.00 | 0.00 | 0.00 | 100 | 1016.6 |
| 20260903021019 | 27 | 103 | 3.2 | 9.7 | 0.00 | 0.00 | 0.00 | 100 | 1016.6 |
| 20260903020518 | 27 | 103 | 1.6 | 9.7 | 0.00 | 0.00 | 0.00 | 100 | 1016.6 |
| 20260903020018 | 27 | 145 | 1.6 | 6.4 | 0.00 | 0.00 | 0.00 | 100 | 1016.6 |
| 20260903015519 | 27 | 117 | 1.6 | 6.4 | 0.00 | 0.00 | 0.00 | 100 | 1016.7 |
| 20260903015017 | 27 | 117 | 1.6 | 6.4 | 0.00 | 0.00 | 0.00 | 100 | 1016.7 |
| 20260903014518 | 27 | 113 | 1.6 | 6.4 | 0.00 | 0.00 | 0.00 | 100 | 1016.6 |
| 20260903014022 | 27 | 120 | 1.6 | 9.7 | 0.00 | 0.00 | 0.00 | 100 | 1016.6 |
| 20260903013517 | 27 | 110 | 1.6 | 11.3 | 0.00 | 0.00 | 0.00 | 100 | 1016.7 |
| 20260903013022 | 27 | 82 | 3.2 | 11.3 | 0.00 | 0.00 | 0.00 | 100 | 1016.6 |
| 20260903012517 | 27 | 130 | 1.6 | 9.7 | 0.00 | 0.00 | 0.00 | 100 | 1016.5 |
| 20260903012017 | 27 | 128 | 3.2 | 9.7 | 0.00 | 0.00 | 0.00 | 100 | 1016.4 |
| 20260903011517 | 27 | 134 | 3.2 | 11.3 | 0.00 | 0.00 | 0.00 | 100 | 1016.5 |
| 20260903011017 | 27 | 124 | 3.2 | 11.3 | 0.00 | 0.00 | 0.00 | 100 | 1016.4 |
| 20260903010516 | 27 | 144 | 0.0 | 11.3 | 0.00 | 0.00 | 0.00 | 100 | 1016.3 |
| 20260903010016 | 27 | 127 | 1.6 | 12.9 | 0.00 | 0.00 | 0.00 | 100 | 1016.1 |
| 20260903005516 | 27 | 110 | 3.2 | 11.3 | 0.00 | 0.00 | 0.00 | 100 | 1016.1 |
| 20260903005015 | 27 | 119 | 3.2 | 9.7 | 0.00 | 0.00 | 0.00 | 100 | 1016.0 |
| 20260903004530 | 27 | 118 | 1.6 | 8.0 | 0.00 | 0.00 | 0.00 | 100 | 1016.0 |
| 20260903004018 | 27 | 104 | 1.6 | 9.7 | 0.00 | 0.00 | 0.00 | 100 | 1016.0 |
| 20260903003516 | 27 | 97 | 1.6 | 4.8 | 0.00 | 0.00 | 0.00 | 100 | 1016.0 |
| 20260903003016 | 27 | 110 | 0.0 | 11.3 | 0.00 | 0.00 | 0.00 | 100 | 1016.0 |
| 20260903002515 | 27 | 86 | 1.6 | 11.3 | 0.00 | 0.00 | 0.00 | 100 | 1015.8 |
| 20260903002015 | 27 | 83 | 1.6 | 6.4 | 0.00 | 0.00 | 0.00 | 100 | 1015.7 |
| 20260903001514 | 27 | 115 | 1.6 | 11.3 | 0.00 | 0.00 | 0.00 | 100 | 1015.6 |
| 20260903001014 | 27 | 103 | 1.6 | 11.3 | 0.00 | 0.00 | 0.00 | 100 | 1015.7 |
| 20260903000514 | 27 | 113 | 1.6 | 9.7 | 0.00 | 0.00 | 0.00 | 100 | 1015.6 |
| 20260903000016 | 27 | 101 | 0.0 | 9.7 | 0.00 | 0.00 | 0.00 | 100 | 1015.6 |
| 20260902235514 | 27 | 132 | 1.6 | 11.3 | 0.00 | 0.00 | 0.00 | 100 | 1015.6 |
| 20260902235013 | 27 | 98 | 3.2 | 14.5 | 0.00 | 0.00 | 0.00 | 100 | 1015.6 |
| 20260902234513 | 27 | 124 | 4.8 | 14.5 | 0.00 | 0.00 | 0.00 | 100 | 1015.5 |
| 20260902234013 | 27 | 107 | 3.2 | 11.3 | 0.00 | 0.00 | 0.00 | 100 | 1015.4 |
| 20260902233513 | 27 | 119 | 0.0 | 12.9 | 0.00 | 0.00 | 0.00 | 100 | 1015.4 |
| 20260902233013 | 27 | 136 | 6.4 | 12.9 | 0.00 | 0.00 | 0.00 | 100 | 1015.5 |
| 20260902232514 | 27 | 161 | 4.8 | 12.9 | 0.00 | 0.00 | 0.00 | 100 | 1015.5 |
| 20260902232012 | 27 | 93 | 3.2 | 12.9 | 0.00 | 0.00 | 0.00 | 100 | 1015.4 |
| 20260902231514 | 27 | 106 | 1.6 | 9.7 | 0.00 | 0.00 | 0.00 | 100 | 1015.4 |
| 20260902231018 | 27 | 111 | 3.2 | 9.7 | 0.00 | 0.00 | 0.00 | 100 | 1015.4 |
| 20260902230517 | 27 | 131 | 3.2 | 14.5 | 0.00 | 0.00 | 0.00 | 100 | 1015.3 |
| 20260902230011 | 28 | 149 | 4.8 | 14.5 | 0.00 | 0.00 | 0.00 | 100 | 1015.3 |
| 20260902225512 | 27 | 129 | 3.2 | 16.1 | 0.00 | 0.00 | 0.00 | 100 | 1015.4 |
| 20260902225012 | 27 | 96 | 6.4 | 16.1 | 0.00 | 0.00 | 0.00 | 100 | 1015.3 |
| 20260902224511 | 27 | 139 | 6.4 | 11.3 | 0.00 | 0.00 | 0.00 | 100 | 1015.3 |
| 20260902224010 | 28 | 135 | 3.2 | 8.0 | 0.00 | 0.00 | 0.00 | 100 | 1015.3 |
| 20260902223518 | 28 | 128 | 3.2 | 9.7 | 0.00 | 0.00 | 0.00 | 100 | 1015.3 |
| 20260902223010 | 28 | 101 | 1.6 | 12.9 | 0.00 | 0.00 | 0.00 | 100 | 1015.3 |
| 20260902222511 | 28 | 67 | 4.8 | 12.9 | 0.00 | 0.00 | 0.00 | 100 | 1015.4 |
| 20260902222010 | 28 | 111 | 3.2 | 9.7 | 0.00 | 0.00 | 0.00 | 100 | 1015.3 |
| 20260902221509 | 28 | 111 | 3.2 | 6.4 | 0.00 | 0.00 | 0.00 | 100 | 1015.3 |
| 20260902221010 | 28 | 116 | 0.0 | 4.8 | 0.00 | 0.00 | 0.00 | 100 | 1015.3 |
| 20260902220509 | 28 | 113 | 0.0 | 9.7 | 0.00 | 0.00 | 0.00 | 100 | 1015.4 |
| 20260902220009 | 28 | 111 | 0.0 | 9.7 | 0.00 | 0.00 | 0.00 | 100 | 1015.4 |
| 20260902215508 | 28 | 117 | 1.6 | 6.4 | 0.00 | 0.00 | 0.00 | 100 | 1015.5 |
| 20260902215008 | 28 | 107 | 1.6 | 8.0 | 0.00 | 0.00 | 0.00 | 100 | 1015.5 |
| 20260902214509 | 28 | 109 | 1.6 | 9.7 | 0.00 | 0.00 | 0.00 | 100 | 1015.5 |
| 20260902214008 | 28 | 118 | 3.2 | 9.7 | 0.00 | 0.00 | 0.00 | 100 | 1015.5 |
| 20260902213508 | 28 | 130 | 1.6 | 11.3 | 0.00 | 0.00 | 0.00 | 100 | 1015.5 |
| 20260902213022 | 28 | 119 | 3.2 | 11.3 | 0.00 | 0.00 | 0.00 | 100 | 1015.5 |
| 20260902212508 | 28 | 110 | 3.2 | 11.3 | 0.00 | 0.00 | 0.00 | 100 | 1015.5 |
| 20260902212007 | 28 | 152 | 4.8 | 11.3 | 0.00 | 0.00 | 0.00 | 100 | 1015.4 |
| 20260902211507 | 28 | 146 | 3.2 | 11.3 | 0.00 | 0.00 | 0.00 | 100 | 1015.4 |
| 20260902211006 | 28 | 124 | 3.2 | 12.9 | 0.00 | 0.00 | 0.00 | 100 | 1015.3 |
| 20260902210506 | 28 | 117 | 6.4 | 12.9 | 0.00 | 0.00 | 0.00 | 100 | 1015.4 |
| 20260902210014 | 28 | 109 | 3.2 | 11.3 | 0.00 | 0.00 | 0.00 | 100 | 1015.4 |
| 20260902205505 | 28 | 148 | 1.6 | 12.9 | 0.00 | 0.00 | 0.00 | 100 | 1015.5 |
| 20260902205007 | 28 | 153 | 4.8 | 11.3 | 0.00 | 0.00 | 0.00 | 100 | 1015.5 |
| 20260902204505 | 28 | 122 | 3.2 | 12.9 | 0.00 | 0.00 | 0.00 | 100 | 1015.7 |
| 20260902204005 | 29 | 106 | 3.2 | 12.9 | 0.00 | 0.00 | 0.00 | 100 | 1015.7 |
| 20260902203505 | 29 | 121 | 6.4 | 12.9 | 0.00 | 0.00 | 0.00 | 100 | 1015.7 |
| 20260902203005 | 29 | 153 | 6.4 | 12.9 | 0.00 | 0.00 | 0.00 | 100 | 1015.7 |
| 20260902202504 | 29 | 116 | 4.8 | 14.5 | 0.00 | 0.00 | 0.00 | 100 | 1015.6 |
| 20260902202003 | 29 | 136 | 3.2 | 14.5 | 0.00 | 0.00 | 0.00 | 100 | 1015.6 |
| 20260902201504 | 29 | 89 | 3.2 | 12.9 | 0.00 | 0.00 | 0.00 | 100 | 1015.6 |
| 20260902201003 | 29 | 113 | 3.2 | 12.9 | 0.00 | 0.00 | 0.00 | 100 | 1015.5 |
| 20260902200503 | 29 | 90 | 4.8 | 14.5 | 0.00 | 0.00 | 0.00 | 100 | 1015.6 |
| 20260902200006 | 29 | 76 | 3.2 | 17.7 | 0.00 | 0.00 | 0.00 | 100 | 1015.7 |
| 20260902195502 | 29 | 111 | 4.8 | 17.7 | 0.00 | 0.00 | 0.00 | 100 | 1015.7 |
| 20260902195001 | 28 | 82 | 4.8 | 12.9 | 0.00 | 0.00 | 0.00 | 100 | 1015.8 |
| 20260902194502 | 28 | 131 | 1.6 | 14.5 | 0.00 | 0.00 | 0.00 | 100 | 1015.9 |
| 20260902194007 | 28 | 128 | 3.2 | 16.1 | 0.00 | 0.00 | 0.00 | 100 | 1015.9 |
| 20260902193502 | 28 | 138 | 4.8 | 16.1 | 0.00 | 0.00 | 0.00 | 100 | 1016.0 |
| 20260902193101 | 29 | 107 | 4.8 | 11.3 | 0.00 | 0.00 | 0.00 | 100 | 1016.0 |
| 20260902192500 | 29 | 135 | 3.2 | 12.9 | 0.00 | 0.00 | 0.00 | 100 | 1016.1 |
| 20260902192059 | 29 | 151 | 6.4 | 12.9 | 0.00 | 0.00 | 0.00 | 100 | 1016.2 |
| 20260902191600 | 29 | 126 | 3.2 | 14.5 | 0.00 | 0.00 | 0.00 | 100 | 1016.3 |
| 20260902191059 | 29 | 132 | 6.4 | 14.5 | 0.00 | 0.00 | 0.00 | 100 | 1016.3 |
| 20260902190559 | 30 | 113 | 3.2 | 12.9 | 0.00 | 0.00 | 0.00 | 100 | 1016.3 |
| 20260902190058 | 29 | 125 | 4.8 | 14.5 | 0.00 | 0.00 | 0.00 | 100 | 1016.3 |
| 20260902185557 | 29 | 128 | 4.8 | 16.1 | 0.00 | 0.00 | 0.00 | 100 | 1016.4 |
| 20260902185057 | 29 | 169 | 6.4 | 16.1 | 0.00 | 0.00 | 0.00 | 100 | 1016.4 |
| 20260902184601 | 29 | 131 | 1.6 | 11.3 | 0.00 | 0.00 | 0.00 | 100 | 1016.4 |